Baltimore, MD

12:40 PM EST on February 08, 2016 (GMT -0500)
Baltimore-Washington International

Weather History for KBWI - October, 2013

Change the Weather History Date:

Saturday, October 5, 2013

  Actual Average Record
Temperature  
Mean Temperature 77 °F 60 °F  
Max Temperature 90 °F 70 °F 97 °F (1941)
Min Temperature 64 °F 49 °F 35 °F (1965)
Degree Days  
Heating Degree Days 0 6  
Month to date heating degree days 0 28  
Since 1 July heating degree days 52 81  
Cooling Degree Days 12 1  
Month to date cooling degree days 38 6  
Year to date cooling degree days 1326 1151  
Growing Degree Days 27 (Base 50)    
Moisture  
Dew Point 63 °F    
Average Humidity 63    
Maximum Humidity 87    
Minimum Humidity 39    
Precipitation  
Precipitation 0.00 in 0.12 in 2.78 in (1902)
Month to date precipitation 0.00 0.57  
Year to date precipitation 27.22 32.45  
Snow  
Snow 0.00 in 0.00 in - ()
Month to date snowfall 0.0 0.0  
Since 1 July snowfall 0.0 0.0  
Snow Depth 0.00 in    
Sea Level Pressure  
Sea Level Pressure 30.04 in    
Wind  
Wind Speed 2 mph (South)    
Max Wind Speed 9 mph    
Max Gust Speed 13 mph    
Visibility 10 miles    
Events      
T = Trace of Precipitation, MM = Missing Value Source: NWS Daily Summary

Daily Weather History Graph

Daily Weather History Graph

Search for Another Location

Airport or City:

Trip Planner

Search our weather history database for the weather conditions in past years. The results will help you decide how hot, cold, wet, or windy it might be!

Date:

Astronomy

Oct. 05, 2013 Rise Set
Actual Time 7:06 AM EDT 6:42 PM EDT
Civil Twilight 6:39 AM EDT 7:09 PM EDT
Nautical Twilight 6:09 AM EDT 7:40 PM EDT
Astronomical Twilight 5:37 AM EDT 8:11 PM EDT
Moon 7:43 AM EDT (10/5) 7:00 PM EDT (10/5)
Length of Visible Light 12h 29m
Length of Day
11h 35m
New Moon, 0% of the Moon is Illuminated
Oct 5
New Moon
Oct 11
First Quarter
Oct 18
Full
Oct 26
Last Quarter
Nov 3
New

Hourly Weather History & Observations

Time (EDT) Temp. Heat Index Dew Point Humidity Pressure Visibility Wind Dir Wind Speed Gust Speed Precip Events Conditions
12:54 AM 68.0 °F - 63.0 °F 84% 30.04 in 9.0 mi Calm Calm - N/A   Partly Cloudy
1:54 AM 68.0 °F - 63.0 °F 84% 30.04 in 8.0 mi Calm Calm - N/A   Scattered Clouds
2:54 AM 66.9 °F - 63.0 °F 87% 30.04 in 9.0 mi Calm Calm - N/A   Partly Cloudy
3:54 AM 66.9 °F - 63.0 °F 87% 30.04 in 10.0 mi Calm Calm - N/A   Scattered Clouds
4:54 AM 68.0 °F - 63.0 °F 84% 30.04 in 10.0 mi West 3.5 mph - N/A   Scattered Clouds
5:54 AM 66.9 °F - 63.0 °F 87% 30.06 in 10.0 mi Calm Calm - N/A   Scattered Clouds
6:54 AM 66.9 °F - 62.1 °F 84% 30.06 in 9.0 mi Calm Calm - N/A   Scattered Clouds
7:54 AM 68.0 °F - 63.0 °F 84% 30.07 in 9.0 mi Calm Calm - N/A   Mostly Cloudy
8:54 AM 75.9 °F - 64.0 °F 67% 30.08 in 10.0 mi Calm Calm - N/A   Scattered Clouds
9:54 AM 80.1 °F 81.9 °F 64.9 °F 60% 30.09 in 10.0 mi Calm Calm - N/A   Mostly Cloudy
10:54 AM 82.9 °F 84.4 °F 64.0 °F 53% 30.08 in 10.0 mi NW 5.8 mph - N/A   Mostly Cloudy
11:54 AM 84.0 °F 84.5 °F 62.1 °F 47% 30.07 in 10.0 mi Calm Calm - N/A   Mostly Cloudy
12:54 PM 86.0 °F 86.1 °F 61.0 °F 43% 30.06 in 10.0 mi Variable 3.5 mph - N/A   Mostly Cloudy
1:54 PM 84.9 °F 85.0 °F 61.0 °F 44% 30.03 in 10.0 mi ESE 4.6 mph - N/A   Mostly Cloudy
2:54 PM 86.0 °F 85.7 °F 60.1 °F 41% 30.02 in 10.0 mi Calm Calm - N/A   Mostly Cloudy
3:54 PM 88.0 °F 87.1 °F 59.0 °F 37% 30.01 in 10.0 mi Calm Calm - N/A   Mostly Cloudy
4:54 PM 88.0 °F 87.6 °F 60.1 °F 39% 30.00 in 10.0 mi SW 8.1 mph - N/A   Mostly Cloudy
5:54 PM 82.9 °F 84.6 °F 64.9 °F 54% 30.00 in 10.0 mi SSE 6.9 mph - N/A   Scattered Clouds
6:54 PM 80.1 °F 82.1 °F 66.0 °F 62% 30.01 in 10.0 mi SSE 4.6 mph - N/A   Scattered Clouds
7:54 PM 77.0 °F - 64.9 °F 66% 30.01 in 10.0 mi Calm Calm - N/A   Scattered Clouds
8:54 PM 75.0 °F - 64.9 °F 71% 30.02 in 10.0 mi SSE 4.6 mph - N/A   Mostly Cloudy
9:54 PM 75.0 °F - 64.0 °F 69% 30.03 in 9.0 mi Calm Calm - N/A   Mostly Cloudy
10:54 PM 72.0 °F - 64.9 °F 78% 30.04 in 7.0 mi Calm Calm - N/A   Scattered Clouds
11:54 PM 72.0 °F - 64.9 °F 78% 30.03 in 10.0 mi Calm Calm - N/A   Partly Cloudy